Temp
22 23 23 23 24 24 23 23 23 24 25 26 26 25 25 25 25 25 24 25 24 23 23 22 22 22 21 21 20 20 20 20 19 19 19 19 19 19 19 19 19 19 20
23 23 24 25 25 24 24 24 25 25 26 26 25 26 26 25 25 25 25 24 24 24 24 23 22 22 21 21 20 20 20 21 20 20 19 20 20 20 20 20 19 20 20
23 24 25 26 25 25 24 24 25 25 25 25 25 25 25 26 25 26 26 24 23 23 23 23 22 22 22 22 21 21 21 21 21 20 20 20 20 20 20 20 20 20 20
23 24 25 25 25 25 25 25 26 26 26 25 25 26 26 25 26 27 26 25 23 23 23 23 22 22 22 22 22 22 22 22 21 21 21 21 20 20 20 20 20 20 21
24 24 24 25 25 25 25 25 26 26 25 25 25 25 26 26 25 26 25 25 24 23 23 23 23 23 23 22 22 22 22 22 22 22 21 21 21 20 20 21 21 21 21
24 24 25 25 25 25 26 25 25 25 25 24 24 25 25 25 25 26 26 25 25 24 24 24 23 23 23 23 23 22 22 22 22 22 22 21 21 21 21 21 21 21 21
24 24 25 25 25 25 25 25 26 25 25 26 24 23 24 25 25 25 24 25 25 24 24 24 24 23 24 23 23 23 23 22 22 22 22 22 22 21 21 21 21 21 21
24 24 24 25 25 25 25 25 25 25 25 25 24 22 20 23 23 23 23 24 24 23 24 24 23 23 23 24 23 23 23 23 23 22 22 22 22 22 21 21 21 21 21
24 24 24 25 25 25 25 25 25 25 25 25 25 24 20 21 21 24 24 25 25 24 25 25 24 23 23 23 23 23 23 23 23 22 22 22 22 21 21 21 21 21 21
24 24 24 24 25 25 25 25 25 25 25 25 25 25 24 24 21 22 25 25 26 26 26 25 25 23 24 23 23 23 23 23 23 23 22 22 22 21 21 21 21 20 20
24 24 24 24 25 25 25 25 25 25 25 24 24 25 24 24 23 21 21 24 26 27 27 26 24 24 24 24 24 23 23 22 23 23 23 22 22 22 21 21 21 20 20
24 24 24 24 24 24 25 25 24 24 24 24 24 24 24 24 23 22 20 21 22 26 27 27 26 25 24 24 25 24 23 23 22 23 23 22 22 22 21 21 21 20 20
24 24 24 24 24 24 24 24 24 24 24 24 24 24 24 24 23 23 22 21 21 24 26 27 27 26 25 25 25 25 25 24 23 23 22 22 22 22 21 21 21 20 20
24 24 24 24 25 24 24 24 24 24 24 24 24 24 24 24 24 23 23 22 20 21 24 25 26 26 26 26 25 24 24 24 24 23 23 22 22 21 21 21 20 20 20
24 24 25 25 25 25 24 24 24 24 24 24 24 24 24 24 24 24 23 23 22 20 20 25 25 26 26 26 25 25 24 24 24 24 24 23 22 21 21 21 20 20 20
24 24 25 25 25 25 25 24 24 24 24 24 24 24 24 24 24 24 23 23 23 22 19 24 24 24 25 25 26 25 24 25 25 23 23 23 22 21 21 21 20 20 20
24 24 24 24 24 24 25 24 24 24 24 24 24 23 24 24 24 23 23 23 22 22 20 22 23 24 24 24 25 25 25 24 24 23 24 23 22 21 21 20 20 20 19
23 24 24 25 25 25 25 25 25 25 24 24 24 24 23 24 24 24 23 23 23 22 21 21 23 23 23 24 24 24 24 24 24 24 24 23 22 21 20 20 20 19 19
24 24 24 24 24 25 25 25 25 25 24 24 24 24 24 24 23 23 23 23 23 23 22 21 21 22 23 23 23 23 23 24 24 24 24 23 22 20 20 19 19 19 18
23 24 24 24 24 24 25 25 25 24 24 24 24 23 23 23 23 23 23 23 23 23 22 22 22 21 22 22 22 22 22 23 23 23 23 23 22 20 19 19 19 18 18
24 24 24 24 24 24 24 24 24 24 24 24 24 23 23 23 23 23 24 24 23 22 22 21 20 20 21 21 21 22 21 21 21 21 21 20 19 19 20 19 18 18 17
24 24 24 24 24 24 24 24 24 23 23 23 23 23 23 22 23 24 23 21 21 21 21 20 20 19 20 21 21 20 20 19 19 20 19 18 18 18 18 18 18 17 17
23 23 23 23 23 22 22 21 21 20 19 19 20 20 21 21 21 20 21 20 20 20 19 19 19 19 20 21 21 20 19 21 20 20 18 17 17 17 17 17 17 17 15
24 24 24 23 22 21 20 22 24 23 22 19 19 18 18 19 19 19 19 19 19 19 19 18 18 18 19 19 18 19 20 19 19 19 18 16 16 16 15 16 15 15 15
24 24 24 23 22 21 21 25 23 21 17 17 17 17 18 17 17 17 16 16 16 16 17 17 16 17 17 17 17 17 18 17 18 18 18 17 14 14 13 14 14 14 13
24 23 23 23 23 22 22 22 23 21 17 16 16 16 16 16 15 14 14 13 13 14 14 14 15 15 15 16 16 16 16 16 17 18 18 17 13 14 11 11 12 12 12
Height
845 845 845 845 846 847 847 847 846 844 842 841 842 840 838 838 841 840 839 837 839 840 843 845 848 848 848 850 851 851 851 852 853 853 854 856 856 857 857 858 859 861 862
844 844 844 843 845 846 846 846 844 841 840 841 841 838 836 837 838 838 839 838 838 840 840 843 846 847 847 848 849 850 849 849 850 851 852 853 854 855 857 857 858 859 861
843 844 843 843 844 845 845 845 842 841 840 841 839 837 835 835 837 837 837 839 839 840 841 841 844 845 845 847 847 847 848 848 848 848 849 851 852 853 855 856 856 857 859
843 844 844 844 845 845 845 844 843 842 840 840 839 837 836 836 835 834 836 836 837 837 838 840 842 842 843 844 845 846 846 847 846 847 848 849 850 852 854 854 855 856 857
842 844 845 845 844 845 846 845 844 843 842 841 838 836 835 834 834 835 834 834 834 836 837 838 838 839 839 840 842 843 845 845 846 846 847 848 849 851 852 852 853 855 856
841 842 844 844 844 844 844 844 844 842 842 840 838 837 837 835 834 833 832 832 833 835 836 836 837 837 837 838 840 841 842 843 844 846 847 848 849 850 851 852 853 854 855
841 841 842 843 843 843 844 843 843 842 841 838 839 839 837 836 834 833 832 832 833 834 835 835 835 835 836 837 839 839 840 842 843 844 845 846 846 848 850 851 852 853 854
839 840 840 841 842 842 842 842 841 841 841 838 836 838 840 838 837 835 833 834 834 836 835 833 834 836 837 836 837 838 839 840 841 843 844 844 845 846 848 850 851 851 852
837 838 839 840 841 841 841 841 841 840 840 839 837 837 841 843 838 836 836 836 835 834 834 833 833 834 834 836 836 837 838 838 840 841 843 843 844 845 846 848 849 850 850
835 837 837 838 839 840 840 841 841 840 839 838 838 837 837 838 839 840 836 835 833 831 831 831 832 833 833 834 834 835 837 838 838 839 840 841 843 844 845 846 847 848 848
832 834 835 836 838 839 840 840 840 840 839 839 839 837 837 837 837 838 840 835 831 830 828 827 829 831 831 832 832 833 834 836 838 837 838 840 840 842 843 844 845 846 847
829 832 833 834 836 837 838 839 839 839 839 839 839 838 837 838 837 838 838 837 834 830 828 826 826 827 829 830 831 832 832 833 835 836 837 838 838 840 841 841 842 843 844
826 828 831 832 833 834 836 837 837 837 837 837 837 837 837 836 836 836 836 836 835 830 829 827 826 826 826 827 828 829 830 831 832 834 834 835 836 837 838 839 841 842 842
823 826 828 830 831 832 833 834 835 835 835 836 836 835 835 835 834 834 835 835 835 833 829 828 826 826 826 826 826 827 828 829 829 830 831 832 833 834 836 837 838 839 840
820 823 824 826 828 829 830 831 832 832 833 834 834 834 833 833 833 833 833 833 833 836 832 826 826 826 826 824 824 825 826 827 827 828 828 829 830 831 832 834 835 836 837
816 818 820 823 825 826 826 827 828 829 830 831 831 831 831 831 831 831 830 830 830 829 830 825 823 823 823 823 822 822 823 822 823 824 825 825 827 828 830 831 832 833 835
811 814 817 819 820 821 822 823 824 826 827 828 829 829 829 829 829 828 827 826 826 826 824 820 820 820 819 818 818 818 818 819 819 821 821 822 824 825 827 828 829 831 833
809 811 813 815 815 816 818 820 822 823 824 825 826 827 827 827 825 824 824 823 822 822 821 818 816 815 815 815 814 815 815 815 815 816 817 818 819 821 823 825 827 829 830
805 808 810 811 813 815 816 817 818 819 821 821 822 823 822 823 822 821 820 820 818 817 817 815 812 812 810 810 810 810 810 810 810 810 812 813 813 815 819 822 824 826 828
800 803 805 808 810 811 813 814 815 816 816 816 817 818 818 817 816 816 814 813 813 813 812 811 809 808 807 806 806 805 806 806 805 805 805 806 808 810 813 815 818 821 824
795 798 801 803 805 807 809 811 812 812 811 811 811 811 811 811 811 810 809 807 808 808 808 806 805 804 802 802 802 802 803 803 802 801 800 801 803 806 807 810 812 814 817
789 793 795 798 800 803 805 808 809 808 808 807 805 805 804 803 803 802 802 801 803 802 801 800 799 798 796 796 797 798 798 798 799 797 797 798 801 802 804 806 809 811 814
783 786 789 792 796 798 798 799 801 802 803 804 802 799 797 797 796 796 796 795 795 796 797 796 794 792 790 790 791 791 792 793 793 795 796 796 798 800 802 804 807 808 809
777 780 783 787 790 791 790 793 792 793 791 795 797 798 795 793 791 790 790 789 788 788 789 789 788 786 786 786 786 785 786 787 788 790 791 792 794 796 800 802 804 806 807
772 774 778 782 783 784 785 783 785 785 786 786 783 792 791 790 788 785 784 782 781 781 782 781 781 780 780 780 780 780 780 783 783 785 787 787 791 794 798 800 802 805 809
766 771 773 775 776 777 779 780 780 780 783 785 781 789 788 786 783 779 778 778 776 775 775 773 774 774 774 774 775 774 775 776 777 779 780 784 786 791 798 800 802 805 810
Wind_Speed
4 3 4 8 8 8 9 8 7 5 11 14 12 15 15 14 15 12 13 6 6 10 15 14 14 13 15 15 15 14 14 14 14 15 16 15 13 11 10 14 14 15 14
3 6 7 8 9 9 8 7 7 6 4 7 9 6 10 9 13 13 15 16 17 11 13 14 14 14 15 15 15 14 14 13 13 13 13 14 13 13 12 12 13 14 13
4 1 2 1 2 4 7 5 6 7 7 7 9 10 11 10 11 12 14 14 15 17 15 14 17 16 15 14 12 12 12 12 11 11 12 13 12 12 13 13 14 13 13
0 2 4 4 3 3 5 5 3 3 5 8 9 7 6 6 8 11 9 14 13 11 14 14 16 14 13 13 10 10 10 11 10 10 11 11 12 12 12 12 12 12 12
3 5 2 2 4 2 3 5 4 5 5 5 7 5 2 6 11 13 10 10 15 12 11 15 16 14 13 13 12 11 10 9 10 10 10 10 10 11 10 11 11 12 11
5 5 5 0 2 1 2 1 2 2 1 7 1 5 5 2 5 15 11 9 11 14 11 14 17 13 12 11 11 11 11 9 10 10 10 9 9 10 10 11 11 12 11
9 7 7 2 1 1 0 2 2 3 7 10 7 5 4 2 2 7 10 10 9 11 14 15 14 10 9 12 13 13 12 11 11 10 10 10 9 9 9 10 11 11 12
12 9 8 5 2 3 2 2 1 2 4 9 6 3 2 1 2 2 7 7 6 12 7 10 13 12 12 11 13 12 13 11 11 10 9 10 10 9 9 10 11 11 11
14 11 8 8 5 2 3 1 1 1 2 3 8 4 2 1 3 0 7 8 11 15 9 8 9 10 12 12 11 12 12 13 11 11 10 9 10 10 9 10 10 10 10
12 11 12 8 6 5 5 5 2 3 2 3 3 4 3 2 2 3 3 4 10 12 17 15 11 11 5 11 11 12 12 13 12 12 12 11 10 9 9 9 10 10 10
16 14 14 11 11 10 8 7 6 4 1 2 3 4 3 1 4 2 2 8 14 11 10 15 17 13 10 5 8 12 12 14 14 13 13 12 11 11 10 10 10 10 10
19 17 15 15 14 14 11 12 11 7 6 4 5 4 3 2 2 1 0 3 6 11 11 9 9 11 13 10 5 10 14 12 14 13 14 13 12 11 11 10 10 11 10
21 21 20 18 18 16 15 13 14 12 10 9 7 5 6 5 5 3 1 2 2 4 6 11 9 8 9 12 10 8 10 13 12 14 14 14 14 13 12 10 9 8 9
23 21 24 22 20 19 17 17 15 14 12 11 10 8 8 8 6 5 3 2 2 2 4 7 6 10 9 10 14 11 11 10 10 11 14 14 15 14 14 12 11 11 11
25 22 20 22 21 20 20 19 18 15 14 13 12 11 12 10 9 9 6 7 3 1 3 4 2 10 12 12 12 15 15 8 13 14 13 15 15 16 16 15 13 14 13
25 26 22 22 24 23 23 23 22 18 16 15 15 15 15 15 12 12 11 10 10 8 3 6 14 18 15 12 11 14 14 16 16 13 14 15 16 17 17 16 16 15 14
24 27 25 24 26 24 22 23 23 20 19 18 17 17 18 16 16 15 14 13 12 11 8 14 15 16 15 13 13 14 14 13 14 16 14 16 18 18 18 18 17 16 14
25 21 21 22 20 18 20 22 22 21 21 22 21 20 21 19 20 18 17 17 17 16 15 17 20 19 18 15 13 14 17 18 18 18 18 19 19 19 19 19 17 17 15
31 27 22 21 20 18 18 20 21 23 23 25 25 24 24 22 22 22 22 21 22 20 19 18 21 20 21 17 16 17 18 17 19 20 24 22 21 19 18 17 17 17 16
29 28 27 26 24 22 23 23 23 23 24 25 25 25 26 27 27 27 27 25 22 20 19 21 24 24 22 21 17 16 18 17 17 18 21 24 21 18 18 18 18 17 16
33 31 29 28 27 28 29 27 26 28 29 28 27 26 26 26 28 28 27 24 23 23 22 23 21 22 22 22 21 14 14 14 13 14 17 18 20 20 17 20 20 19 19
32 33 34 34 35 33 32 26 26 27 27 29 30 28 27 23 22 23 22 22 24 26 27 22 18 17 23 25 24 19 16 12 4 11 12 16 17 20 19 17 19 18 19
29 29 29 29 25 23 23 21 20 17 21 25 26 22 19 17 17 16 16 16 17 18 19 21 21 21 19 25 23 18 16 16 16 17 11 10 15 17 15 16 17 18 16
29 28 27 24 22 16 15 4 13 21 19 16 17 17 15 15 14 15 17 20 21 23 25 24 26 28 24 20 16 14 14 13 16 15 12 9 13 12 13 14 15 15 13
28 29 27 23 24 22 17 18 18 24 11 9 10 16 15 17 16 16 18 19 22 24 21 19 20 21 22 21 20 17 19 13 10 11 18 15 12 11 9 11 11 11 13
29 26 24 24 25 24 23 20 16 11 14 13 12 16 15 16 13 10 13 15 20 25 20 20 22 22 21 21 20 19 19 17 14 11 21 18 17 13 5 9 12 13 13
Wind_Direction
226 219 274 269 248 249 264 290 286 312 336 310 290 294 295 283 281 276 273 272 272 258 249 239 246 245 239 242 243 239 239 238 240 246 244 249 248 240 238 217 220 235 241
255 300 291 263 256 268 288 305 289 235 353 342 330 259 281 280 264 256 262 263 261 262 240 239 247 249 247 247 244 241 238 241 239 245 246 241 239 238 233 232 239 243 246
314 33 29 183 245 289 255 305 276 277 247 304 323 312 272 268 274 253 250 264 272 258 249 245 248 242 244 246 245 239 241 238 239 238 241 239 239 234 235 239 239 237 234
218 139 119 151 125 46 90 100 90 144 338 287 312 306 287 275 235 217 242 249 255 254 238 246 249 248 244 242 240 245 241 239 236 230 231 226 228 229 237 235 230 227 227
166 164 188 73 171 139 91 95 136 211 251 328 263 286 279 317 244 229 226 235 239 248 239 233 231 233 235 236 236 230 233 229 231 221 222 223 225 229 229 227 225 226 228
210 189 211 38 198 146 349 146 180 130 69 345 225 226 250 245 238 222 225 228 224 227 233 241 238 230 229 230 220 218 219 220 222 217 213 215 221 225 226 223 225 227 229
216 208 207 198 193 299 162 94 28 9 32 14 113 109 94 170 267 222 222 233 223 223 239 238 229 229 236 229 220 212 214 215 215 208 213 209 208 217 226 230 230 234 240
209 218 223 221 242 201 170 85 36 21 47 37 33 89 9 250 67 220 199 198 232 241 246 230 231 237 239 234 219 210 209 216 219 216 212 214 211 212 221 231 238 239 244
203 221 203 213 213 191 208 343 175 177 69 64 41 68 83 277 327 4 218 237 287 233 267 271 249 243 250 229 221 219 210 212 216 219 222 217 217 217 224 233 241 243 244
212 222 199 203 217 232 231 200 147 122 105 19 330 7 44 185 140 343 294 324 310 274 268 262 274 260 285 222 235 229 227 223 220 219 222 222 222 228 231 237 240 246 248
202 211 206 217 226 230 223 218 228 223 227 268 316 332 334 19 50 121 287 331 349 345 307 286 270 259 250 276 249 223 217 227 231 224 224 227 227 228 231 238 246 251 255
201 208 214 224 229 235 238 240 232 237 241 255 288 295 298 305 321 36 293 299 312 338 330 318 301 269 247 255 278 248 239 225 231 236 233 228 232 236 239 239 243 250 251
216 222 223 226 230 237 242 246 239 244 246 257 267 272 277 293 290 282 310 306 305 325 350 355 334 311 274 248 260 277 261 238 236 241 241 236 236 233 235 240 241 261 259
223 235 229 232 240 239 243 244 241 243 248 244 259 260 258 281 288 268 264 264 322 302 306 328 343 11 348 268 265 278 271 251 251 250 243 237 238 239 239 237 231 241 252
234 237 235 236 237 244 246 245 244 244 240 249 252 255 265 274 287 284 268 262 231 246 286 308 310 321 328 317 285 272 263 242 272 262 248 244 242 242 241 240 237 241 248
239 237 241 241 249 251 253 244 244 248 248 252 257 259 263 270 275 282 274 264 262 249 223 244 285 300 300 302 293 277 281 279 245 255 256 252 248 245 243 242 242 243 245
240 236 243 248 252 255 250 242 239 246 252 257 260 261 264 268 267 274 274 268 256 248 256 284 289 302 299 296 284 276 290 290 269 259 279 264 252 248 246 245 245 244 246
236 236 248 250 254 246 248 235 241 251 254 259 266 264 267 272 273 273 269 268 269 263 250 263 287 294 292 295 287 274 279 275 274 269 270 275 255 246 245 245 245 244 245
237 242 245 249 249 245 247 248 251 254 259 264 268 270 267 273 274 274 273 272 275 275 261 259 278 287 292 297 294 286 284 276 271 272 263 263 254 241 241 244 245 243 245
236 242 246 251 254 257 255 256 258 259 261 262 262 266 270 271 274 276 274 269 275 274 269 268 274 279 283 291 290 288 289 288 286 273 266 261 247 233 233 237 236 240 241
238 242 246 251 256 257 258 259 259 262 264 266 269 272 274 274 274 274 275 279 273 270 267 264 261 267 272 279 278 288 286 293 291 279 264 255 233 224 231 232 228 229 232
240 244 249 254 257 262 268 275 279 280 277 273 273 270 268 276 278 274 270 266 265 266 263 253 254 248 263 275 280 277 276 283 264 283 257 252 234 225 227 232 235 234 238
240 243 249 253 260 267 265 261 265 286 301 300 285 272 265 266 266 265 264 259 254 254 256 263 260 254 258 269 271 262 257 260 261 271 252 218 223 221 233 236 237 236 227
240 245 249 252 248 244 245 235 316 313 301 287 280 277 279 273 271 270 273 269 268 267 266 265 261 263 262 263 257 255 260 270 265 256 243 188 206 210 221 231 229 221 210
243 247 251 250 245 228 211 250 280 282 274 263 282 270 275 283 283 281 278 280 280 273 269 268 265 260 257 256 256 255 252 249 242 250 226 205 185 167 183 191 199 205 200
244 248 251 253 255 248 248 251 268 256 251 260 263 275 290 294 291 296 290 287 285 284 287 279 268 262 256 254 250 249 248 238 232 223 221 199 168 165 140 172 176 176 185